Starlink 4634

operational
NORAD ID: 53967 Int'l Des: 2022-125 Owner: SPXS Country: US Constellation: starlink
LEOCIRCULAR

About Starlink 4634

Description loading...

Live Position

Loading 3D Globe...

Upcoming Passes

Altitude History

Altitude vs Time

uPlot chart will show altitude changes over time

Two-Line Element Set

1 53967U 22125D 25303.14400742 .00000174 00000-0 29005-4 0 9999
2 53967 53.2188 90.1982 0001261 86.8190 273.2946 15.08844101169618
Epoch: Oct 30, 2025 • Age: 17 hours

Current Status

Altitude 542.1 km
Velocity 7.59 km/s
Sub-Earth Point -7.79°S, 88.17°E
Launch Date Oct 5, 2022
Age 3 years
Type internet

Technical Details

Classification Payload
Mass 305.00 kg
Dry Mass 290.00 kg
Total Mass 305.00 kg
Length 0.20 m
Diameter 2.80 m
Span 9.00 m
Shape Box + pan
Manufacturer SPXS
Bus Type Starlink
Phase Status In Orbit
Owner/State SPXS/US

Large Constellations

Loading constellations...